When you browse on this site, cookies collect data to enhance your experience and personalize the content and advertising you see.
Visit our Privacy Policy to learn more. By continuing to use the site, you agree to this use of cookies and data.
  • In United Kingdom
  • List of Countries
  • For 7 days
  • Water Temperature
  • Weather Map
  • Weather Widgets
  • user-avatar
    Login

    Hourly Weather Naiham

    Today, 20 September, Friday

    Time Temperature Precipitation Wind Pressure Humidity
    00:00 +20°C° 0 mm 0 mps 707 mmHg 98%
    01:00 +20°C° 0 mm 0 mps 707 mmHg 98%
    02:00 +20°C° 0.4 mm 0 mps 707 mmHg 98%
    03:00 +20°C° 0.4 mm 0 mps 707 mmHg 98%
    04:00 +20°C° 0.4 mm 0 mps 706 mmHg 98%
    05:00 +21°C° 0 mm 0 mps 707 mmHg 98%
    06:00 +21°C° 0 mm 0 mps 707 mmHg 97%
    07:00 +22°C° 0 mm 0 mps 707 mmHg 97%
    08:00 +23°C° 1 mm 0 mps 708 mmHg 95%
    09:00 +24°C° 1 mm 0 mps 708 mmHg 93%
    10:00 +25°C° 1 mm 0 mps 708 mmHg 91%
    11:00 +26°C° 1.2 mm 0 mps 707 mmHg 87%
    12:00 +26°C° 1.2 mm 0 mps 706 mmHg 82%
    13:00 +29°C° 0 mm 1 mps 706 mmHg 78%
    14:00 +29°C° 0.6 mm 1 mps 706 mmHg 78%
    15:00 +28°C° 0.6 mm 1 mps 706 mmHg 78%
    16:00 +28°C° 0.6 mm 1 mps 705 mmHg 79%
    17:00 +27°C° 0.2 mm 1 mps 705 mmHg 85%
    18:00 +23°C° 0.2 mm 0 mps 705 mmHg 91%
    19:00 +21°C° 0.2 mm 0 mps 705 mmHg 97%
    20:00 +21°C° 0.1 mm 0 mps 706 mmHg 97%
    21:00 +21°C° 0.1 mm 0 mps 707 mmHg 97%
    22:00 +20°C° 0.1 mm 0 mps 707 mmHg 97%
    23:00 +20°C° 0.1 mm 0 mps 707 mmHg 97%

    Tomorrow, 21 September, Saturday

    Time Temperature Precipitation Wind Pressure Humidity
    00:00 +20°C° 0.1 mm 0 mps 707 mmHg 97%
    01:00 +20°C° 0.1 mm 0 mps 707 mmHg 97%
    02:00 +20°C° 0.1 mm 0 mps 707 mmHg 97%
    03:00 +19°C° 0.1 mm 0 mps 706 mmHg 98%
    04:00 +19°C° 0.1 mm 0 mps 706 mmHg 98%
    05:00 +20°C° 0.2 mm 0 mps 707 mmHg 97%
    06:00 +20°C° 0.2 mm 0 mps 707 mmHg 97%
    07:00 +21°C° 0.2 mm 0 mps 707 mmHg 97%
    08:00 +23°C° 0.1 mm 0 mps 708 mmHg 84%
    09:00 +27°C° 0.1 mm 1 mps 708 mmHg 72%
    10:00 +29°C° 0.1 mm 1 mps 708 mmHg 59%
    11:00 +29°C° 0.1 mm 1 mps 708 mmHg 56%
    12:00 +30°C° 0.1 mm 2 mps 707 mmHg 53%
    13:00 +31°C° 0.1 mm 2 mps 707 mmHg 50%
    14:00 +30°C° 0.1 mm 2 mps 706 mmHg 54%
    15:00 +29°C° 0.1 mm 2 mps 706 mmHg 57%
    16:00 +29°C° 0.1 mm 2 mps 706 mmHg 61%
    17:00 +27°C° 0.1 mm 1 mps 706 mmHg 71%
    18:00 +25°C° 0.1 mm 1 mps 706 mmHg 81%
    19:00 +20°C° 0.1 mm 0 mps 707 mmHg 91%
    20:00 +20°C° 0 mm 0 mps 707 mmHg 91%
    21:00 +20°C° 0 mm 0 mps 708 mmHg 91%
    22:00 +20°C° 0 mm 0 mps 709 mmHg 90%
    23:00 +20°C° 0.1 mm 0 mps 709 mmHg 92%

    Day after tomorrow, 22 September, Sunday

    Time Temperature Precipitation Wind Pressure Humidity
    00:00 +19°C° 0.1 mm 0 mps 709 mmHg 93%
    01:00 +19°C° 0.1 mm 0 mps 708 mmHg 95%
    02:00 +19°C° 0 mm 0 mps 708 mmHg 95%
    03:00 +18°C° 0 mm 0 mps 708 mmHg 95%
    04:00 +18°C° 0 mm 0 mps 708 mmHg 95%
    05:00 +19°C° 0 mm 0 mps 708 mmHg 94%
    06:00 +19°C° 0 mm 0 mps 709 mmHg 92%
    07:00 +19°C° 0 mm 0 mps 709 mmHg 91%
    08:00 +23°C° 0 mm 1 mps 710 mmHg 77%
    09:00 +25°C° 0 mm 1 mps 710 mmHg 64%
    10:00 +27°C° 0 mm 2 mps 711 mmHg 51%
    11:00 +28°C° 0 mm 2 mps 710 mmHg 47%
    12:00 +29°C° 0 mm 2 mps 710 mmHg 43%
    13:00 +29°C° 0 mm 3 mps 709 mmHg 40%
    14:00 +29°C° 0 mm 2 mps 709 mmHg 42%
    15:00 +28°C° 0 mm 2 mps 709 mmHg 45%
    16:00 +28°C° 0 mm 2 mps 708 mmHg 47%
    17:00 +25°C° 0 mm 1 mps 708 mmHg 56%
    18:00 +23°C° 0 mm 1 mps 709 mmHg 65%
    19:00 +19°C° 0 mm 0 mps 709 mmHg 74%
    20:00 +19°C° 0 mm 0 mps 709 mmHg 76%
    21:00 +18°C° 0 mm 0 mps 710 mmHg 78%
    22:00 +17°C° 0 mm 0 mps 711 mmHg 80%
    23:00 +17°C° 0 mm 0 mps 710 mmHg 79%

    23 September, Monday

    Time Temperature Precipitation Wind Pressure Humidity
    00:00 +17°C° 0 mm 0 mps 710 mmHg 79%
    01:00 +17°C° 0 mm 0 mps 710 mmHg 78%
    02:00 +17°C° 0 mm 0 mps 710 mmHg 79%
    03:00 +16°C° 0 mm 0 mps 710 mmHg 80%
    04:00 +16°C° 0 mm 0 mps 709 mmHg 81%
    05:00 +16°C° 0 mm 0 mps 710 mmHg 79%
    06:00 +17°C° 0 mm 0 mps 710 mmHg 77%
    07:00 +17°C° 0 mm 0 mps 711 mmHg 76%
    08:00 +22°C° 0 mm 1 mps 711 mmHg 66%
    09:00 +24°C° 0 mm 1 mps 712 mmHg 55%
    10:00 +26°C° 0 mm 2 mps 712 mmHg 45%
    11:00 +27°C° 0 mm 2 mps 711 mmHg 43%
    12:00 +28°C° 0 mm 2 mps 711 mmHg 42%
    13:00 +28°C° 0 mm 2 mps 710 mmHg 40%
    14:00 +28°C° 0 mm 2 mps 710 mmHg 43%
    15:00 +27°C° 0 mm 2 mps 710 mmHg 45%
    16:00 +27°C° 0 mm 2 mps 709 mmHg 48%
    17:00 +24°C° 0 mm 1 mps 709 mmHg 58%
    18:00 +22°C° 0 mm 1 mps 709 mmHg 67%
    19:00 +18°C° 0 mm 0 mps 710 mmHg 77%
    20:00 +17°C° 0 mm 0 mps 710 mmHg 78%
    21:00 +17°C° 0 mm 0 mps 711 mmHg 79%
    22:00 +16°C° 0 mm 0 mps 711 mmHg 80%
    23:00 +16°C° 0 mm 0 mps 711 mmHg 81%

    24 September, Tuesday

    Time Temperature Precipitation Wind Pressure Humidity
    00:00 +16°C° 0 mm 0 mps 711 mmHg 83%
    01:00 +15°C° 0 mm 0 mps 710 mmHg 84%
    02:00 +15°C° 0 mm 0 mps 710 mmHg 85%
    03:00 +15°C° 0 mm 0 mps 710 mmHg 86%
    04:00 +16°C° 0 mm 1 mps 710 mmHg 87%
    05:00 +15°C° 0 mm 0 mps 710 mmHg 85%
    06:00 +16°C° 0 mm 0 mps 711 mmHg 83%
    07:00 +17°C° 0 mm 0 mps 711 mmHg 80%
    08:00 +21°C° 0 mm 1 mps 712 mmHg 69%
    09:00 +24°C° 0 mm 1 mps 712 mmHg 57%
    10:00 +27°C° 0 mm 1 mps 713 mmHg 46%
    11:00 +27°C° 0 mm 2 mps 712 mmHg 44%
    12:00 +28°C° 0 mm 2 mps 711 mmHg 42%
    13:00 +29°C° 0 mm 2 mps 711 mmHg 40%
    14:00 +28°C° 0 mm 2 mps 710 mmHg 43%
    15:00 +28°C° 0 mm 2 mps 710 mmHg 46%
    16:00 +27°C° 0 mm 2 mps 709 mmHg 49%
    17:00 +25°C° 0 mm 1 mps 710 mmHg 60%
    18:00 +22°C° 0 mm 1 mps 710 mmHg 71%
    19:00 +18°C° 0 mm 0 mps 710 mmHg 81%
    20:00 +18°C° 0 mm 0 mps 711 mmHg 83%
    21:00 +17°C° 0 mm 0 mps 711 mmHg 84%
    22:00 +17°C° 0 mm 0 mps 712 mmHg 85%
    23:00 +16°C° 0 mm 0 mps 711 mmHg 86%

    25 September, Wednesday

    Time Temperature Precipitation Wind Pressure Humidity
    00:00 +16°C° 0 mm 0 mps 711 mmHg 87%
    01:00 +16°C° 0 mm 0 mps 711 mmHg 88%
    02:00 +16°C° 0 mm 0 mps 711 mmHg 89%
    03:00 +15°C° 0 mm 0 mps 710 mmHg 89%
    04:00 +16°C° 0 mm 1 mps 710 mmHg 90%
    05:00 +18°C° 0 mm 1 mps 711 mmHg 87%
    06:00 +16°C° 0 mm 0 mps 711 mmHg 85%
    07:00 +17°C° 0 mm 0 mps 712 mmHg 82%
    08:00 +22°C° 0 mm 1 mps 712 mmHg 70%
    09:00 +25°C° 0 mm 1 mps 713 mmHg 57%
    10:00 +28°C° 0 mm 1 mps 713 mmHg 45%
    11:00 +28°C° 0 mm 1 mps 713 mmHg 44%
    12:00 +29°C° 0 mm 1 mps 712 mmHg 43%
    13:00 +29°C° 0 mm 1 mps 711 mmHg 41%
    14:00 +29°C° 0 mm 1 mps 711 mmHg 45%
    15:00 +28°C° 0 mm 1 mps 710 mmHg 49%
    16:00 +28°C° 0 mm 1 mps 710 mmHg 52%
    17:00 +25°C° 0 mm 1 mps 710 mmHg 60%
    18:00 +21°C° 0 mm 0 mps 710 mmHg 68%
    19:00 +19°C° 0 mm 0 mps 711 mmHg 76%
    20:00 +19°C° 0 mm 0 mps 711 mmHg 75%
    21:00 +19°C° 0 mm 0 mps 711 mmHg 75%
    22:00 +19°C° 0 mm 0 mps 712 mmHg 74%
    23:00 +18°C° 0 mm 0 mps 711 mmHg 76%
    Show more